Henderson, KY

2:39 AM CDT on August 24, 2019 (GMT -0500)
Henderson City-County

Weather History for KEHR - June, 2019

Change the Weather History Date:

Friday, June 7, 2019

  Actual Average Record
Temperature  
Mean Temperature 74 °F -  
Max Temperature 80 °F 83 °F 100 °F (1933)
Min Temperature 66 °F 60 °F 45 °F (1944)
Cooling Degree Days 10    
Growing Degree Days 24 (Base 50)    
Moisture  
Dew Point 68 °F    
Average Humidity 84    
Maximum Humidity 94    
Minimum Humidity 66    
Precipitation  
Precipitation 0.12 in - - ()
Sea Level Pressure  
Sea Level Pressure 29.78 in    
Wind  
Wind Speed 9 mph (ENE)    
Max Wind Speed 20 mph    
Max Gust Speed 30 mph    
Visibility 9 miles    
Events Rain    
Averages and records for this station are not official NWS values.
T = Trace of Precipitation, MM = Missing Value Source: NWS Daily Summary

Daily Weather History Graph

Daily Weather History Graph

Search for Another Location

Airport or City:

Astronomy

Jun. 07, 2019 Rise Set
Actual Time 5:28 AM CDT 8:10 PM CDT
Civil Twilight 4:57 AM CDT 8:41 PM CDT
Nautical Twilight 4:19 AM CDT 9:20 PM CDT
Astronomical Twilight 3:35 AM CDT 10:04 PM CDT
Moon 9:44 AM CDT (6/7) No Moon Set
Length of Visible Light 15h 43m
Length of Day
14h 41m
Waxing Crescent, 22% of the Moon is Illuminated
Jun 7
Waxing Crescent
Jun 10
First Quarter
Jun 17
Full
Jun 25
Last Quarter
Jul 2
New

Hourly Weather History & Observations

Time (CDT) Temp. Heat Index Dew Point Humidity Pressure Visibility Wind Dir Wind Speed Gust Speed Precip Events Conditions
12:26 AM 71.6 °F - 69.8 °F 94% 29.80 in 9.0 mi SE 3.5 mph - N/A   Mostly Cloudy
12:56 AM 72.0 °F - 70.0 °F 93% 29.79 in 7.0 mi SE 4.6 mph - N/A   Mostly Cloudy
1:20 AM 71.6 °F - 69.8 °F 94% 29.79 in 8.0 mi ESE 4.6 mph - N/A   Scattered Clouds
1:56 AM 71.1 °F - 69.1 °F 93% 29.78 in 10.0 mi East 4.6 mph - N/A   Clear
2:22 AM 71.6 °F - 69.8 °F 94% 29.78 in 8.0 mi East 6.9 mph - N/A   Partly Cloudy
2:39 AM 71.6 °F - 69.8 °F 94% 29.78 in 7.0 mi East 5.8 mph - N/A   Mostly Cloudy
2:56 AM 71.1 °F - 69.1 °F 93% 29.78 in 8.0 mi East 5.8 mph - N/A   Overcast
3:40 AM 71.6 °F - 69.8 °F 94% 29.78 in 10.0 mi ENE 5.8 mph - N/A   Scattered Clouds
3:56 AM 70.0 °F - 68.0 °F 93% 29.77 in 10.0 mi ENE 6.9 mph - N/A   Partly Cloudy
4:32 AM 69.8 °F - 68.0 °F 94% 29.77 in 10.0 mi East 9.2 mph - N/A   Mostly Cloudy
4:56 AM 70.0 °F - 68.0 °F 93% 29.77 in 9.0 mi East 8.1 mph - N/A   Mostly Cloudy
5:56 AM 70.0 °F - 68.0 °F 93% 29.78 in 7.0 mi NE 6.9 mph - N/A   Mostly Cloudy
6:03 AM 69.8 °F - 68.0 °F 94% 29.79 in 8.0 mi ENE 5.8 mph - N/A   Mostly Cloudy
6:42 AM 71.6 °F - 69.8 °F 94% 29.80 in 7.0 mi NE 10.4 mph - N/A   Mostly Cloudy
6:56 AM 71.1 °F - 68.0 °F 90% 29.79 in 10.0 mi NE 10.4 mph - N/A   Overcast
7:22 AM 71.6 °F - 68.0 °F 88% 29.80 in 10.0 mi NE 10.4 mph - N/A   Partly Cloudy
7:56 AM 72.0 °F - 68.0 °F 87% 29.78 in 10.0 mi ENE 11.5 mph - N/A   Scattered Clouds
8:10 AM 71.6 °F - 69.8 °F 94% 29.79 in 10.0 mi ENE 9.2 mph - N/A   Mostly Cloudy
8:52 AM 73.4 °F - 69.8 °F 88% 29.79 in 10.0 mi ENE 10.4 mph - N/A   Scattered Clouds
8:56 AM 73.9 °F - 69.1 °F 85% 29.79 in 10.0 mi ENE 10.4 mph - N/A   Scattered Clouds
9:03 AM 73.4 °F - 69.8 °F 88% 29.79 in 10.0 mi ENE 12.7 mph - N/A   Mostly Cloudy
9:17 AM 75.2 °F - 69.8 °F 83% 29.79 in 10.0 mi East 11.5 mph - N/A   Mostly Cloudy
9:34 AM 77.0 °F - 69.8 °F 78% 29.79 in 10.0 mi ENE 9.2 mph - N/A   Partly Cloudy
9:54 AM 75.2 °F - 69.8 °F 83% 29.79 in 10.0 mi ENE 12.7 mph - N/A   Mostly Cloudy
9:56 AM 75.9 °F - 69.1 °F 79% 29.78 in 10.0 mi ENE 11.5 mph - N/A   Mostly Cloudy
10:26 AM 78.8 °F - 69.8 °F 74% 29.79 in 10.0 mi ENE 12.7 mph - N/A   Partly Cloudy
10:56 AM 78.1 °F - 69.1 °F 74% 29.79 in 10.0 mi ENE 15.0 mph - N/A   Mostly Cloudy
11:56 AM 80.1 °F 82.7 °F 68.0 °F 67% 29.77 in 10.0 mi ENE 15.0 mph - N/A   Mostly Cloudy
12:56 PM 79.0 °F - 68.0 °F 69% 29.76 in 10.0 mi ENE 16.1 mph - 0.00 in   Scattered Clouds
1:56 PM 77.0 °F - 71.1 °F 82% 29.76 in 10.0 mi East 11.5 mph - 0.06 in   Clear
2:56 PM 75.0 °F - 66.9 °F 76% 29.76 in 10.0 mi NE 15.0 mph 25.3 mph 0.00 in Rain Light Rain
3:56 PM 78.1 °F - 69.1 °F 74% 29.75 in 10.0 mi NE 15.0 mph - 0.00 in   Partly Cloudy
4:56 PM 77.0 °F - 66.0 °F 69% 29.75 in 10.0 mi ENE 18.4 mph - N/A   Scattered Clouds
5:56 PM 77.0 °F - 64.9 °F 66% 29.75 in 10.0 mi NE 15.0 mph 21.9 mph N/A   Partly Cloudy
6:56 PM 75.9 °F - 64.9 °F 69% 29.75 in 10.0 mi ENE 18.4 mph 24.2 mph N/A   Partly Cloudy
7:56 PM 75.9 °F - 64.0 °F 67% 29.76 in 10.0 mi ENE 17.3 mph 26.5 mph N/A   Mostly Cloudy
8:56 PM 75.0 °F - 63.0 °F 66% 29.77 in 10.0 mi ENE 15.0 mph 24.2 mph N/A   Partly Cloudy
9:56 PM 75.0 °F - 64.0 °F 69% 29.78 in 10.0 mi NE 12.7 mph - N/A   Mostly Cloudy
10:56 PM 70.0 °F - 64.0 °F 81% 29.78 in 6.0 mi ENE 19.6 mph 29.9 mph 0.00 in Rain Light Rain
11:07 PM 69.8 °F - 64.4 °F 83% 29.79 in 8.0 mi NE 11.5 mph - 0.00 in Rain Light Rain
11:56 PM 66.9 °F - 64.9 °F 93% 29.78 in 3.0 mi NE 10.4 mph - 0.06 in Rain Light Rain